Louisville, KY

2:22 AM EST on December 04, 2016 (GMT -0500)
Bowman

Weather History for KLOU - January, 2010

Change the Weather History Date:

Tuesday, January 5, 2010

  Actual Average Record
Temperature  
Mean Temperature 19 °F 35 °F  
Max Temperature 26 °F 43 °F 66 °F (2007)
Min Temperature 12 °F 27 °F -2 °F (1959)
Degree Days  
Heating Degree Days 46 30  
Month to date heating degree days 223 150  
Since 1 July heating degree days 1862 1814  
Cooling Degree Days 0 0  
Month to date cooling degree days 0 0  
Year to date cooling degree days 0 0  
Moisture  
Dew Point 9 °F    
Average Humidity 70    
Maximum Humidity 84    
Minimum Humidity 55    
Precipitation  
Precipitation T in 0.13 in 1.18 in (1966)
Month to date precipitation T 0.65  
Year to date precipitation T 0.65  
Sea Level Pressure  
Sea Level Pressure 30.25 in    
Wind  
Wind Speed 9 mph (West)    
Max Wind Speed 15 mph    
Max Gust Speed 21 mph    
Visibility 9 miles    
Events Snow    
T = Trace of Precipitation, MM = Missing Value Source: NWS Daily Summary

Daily Weather History Graph

Daily Weather History Graph

Search for Another Location

Airport or City:

Trip Planner

Search our weather history database for the weather conditions in past years. The results will help you decide how hot, cold, wet, or windy it might be!

Date:

Astronomy

Jan. 05, 2010 Rise Set
Actual Time 7:59 AM EST 5:36 PM EST
Civil Twilight 7:30 AM EST 6:06 PM EST
Nautical Twilight 6:57 AM EST 6:39 PM EST
Astronomical Twilight 6:25 AM EST 7:11 PM EST
Moon 11:46 PM EST (1/5) 11:02 AM EST (1/5)
Length of Visible Light 10h 35m
Length of Day
9h 37m
Waning Gibbous, 69% of the Moon is Illuminated
Jan 5
Waning Gibbous
Jan 7
Last Quarter
Jan 15
New
Jan 23
First Quarter
Jan 30
Full

Hourly Weather History & Observations

Time (EST) Temp. Windchill Dew Point Humidity Pressure Visibility Wind Dir Wind Speed Gust Speed Precip Events Conditions
12:53 AM 17.1 °F 4.3 °F 10.0 °F 74% 30.24 in 10.0 mi WNW 11.5 mph - N/A   Overcast
1:53 AM 16.0 °F 2.3 °F 9.0 °F 74% 30.24 in 10.0 mi WNW 12.7 mph - N/A   Overcast
2:53 AM 15.1 °F 4.2 °F 8.1 °F 74% 30.25 in 10.0 mi WNW 8.1 mph - N/A   Overcast
3:53 AM 14.0 °F 2.9 °F 9.0 °F 80% 30.25 in 4.0 mi WNW 8.1 mph - N/A   Haze
4:53 AM 14.0 °F 2.0 °F 9.0 °F 80% 30.24 in 6.0 mi West 9.2 mph - N/A   Haze
5:53 AM 14.0 °F 5.1 °F 9.0 °F 80% 30.25 in 5.0 mi West 5.8 mph - 0.00 in Snow Light Snow
6:33 AM 14.0 °F 5.1 °F 8.6 °F 79% 30.23 in 10.0 mi West 5.8 mph - 0.00 in   Overcast
6:53 AM 12.9 °F 1.6 °F 8.1 °F 81% 30.26 in 10.0 mi WSW 8.1 mph - 0.00 in   Overcast
7:04 AM 12.2 °F -0.2 °F 8.6 °F 85% 30.23 in 10.0 mi West 9.2 mph - N/A   Overcast
7:53 AM 12.9 °F 1.6 °F 8.1 °F 81% 30.27 in 9.0 mi West 8.1 mph - N/A   Overcast
8:53 AM 12.9 °F 1.6 °F 7.0 °F 77% 30.29 in 7.0 mi West 8.1 mph - N/A   Overcast
9:53 AM 12.9 °F 0.7 °F 8.1 °F 81% 30.30 in 6.0 mi West 9.2 mph - N/A   Haze
10:53 AM 16.0 °F 3.6 °F 8.1 °F 71% 30.30 in 8.0 mi West 10.4 mph - N/A   Mostly Cloudy
11:53 AM 19.0 °F 8.2 °F 9.0 °F 65% 30.29 in 9.0 mi West 9.2 mph - N/A   Mostly Cloudy
12:53 PM 21.9 °F 11.0 °F 10.0 °F 60% 30.25 in 10.0 mi WSW 10.4 mph - N/A   Overcast
1:12 PM 21.2 °F 13.6 °F 10.4 °F 63% 30.22 in 10.0 mi Variable 5.8 mph - N/A   Overcast
1:53 PM 23.0 °F 14.7 °F 10.9 °F 60% 30.23 in 9.0 mi West 6.9 mph - N/A   Overcast
2:53 PM 24.1 °F 13.1 °F 10.9 °F 57% 30.23 in 10.0 mi West 11.5 mph - N/A   Overcast
3:53 PM 25.0 °F 16.3 °F 10.9 °F 55% 30.22 in 10.0 mi West 8.1 mph - N/A   Overcast
4:53 PM 25.0 °F 15.5 °F 10.9 °F 55% 30.23 in 10.0 mi West 9.2 mph - N/A   Overcast
5:53 PM 23.0 °F 14.7 °F 10.9 °F 60% 30.25 in 10.0 mi WNW 6.9 mph - N/A   Overcast
6:53 PM 21.9 °F 10.4 °F 10.9 °F 63% 30.27 in 10.0 mi West 11.5 mph - N/A   Overcast
7:53 PM 21.0 °F 9.9 °F 10.0 °F 63% 30.28 in 10.0 mi West 10.4 mph - N/A   Scattered Clouds
8:53 PM 19.9 °F 7.9 °F 10.0 °F 65% 30.27 in 10.0 mi West 11.5 mph - N/A   Clear
9:53 PM 19.0 °F 9.0 °F 10.0 °F 68% 30.28 in 10.0 mi West 8.1 mph - N/A   Clear
10:50 PM 17.6 °F 9.3 °F 10.4 °F 73% - 10.0 mi West 5.8 mph - N/A   Mostly Cloudy
10:53 PM 18.0 °F 9.8 °F 10.0 °F 71% - 10.0 mi West 5.8 mph - N/A   Mostly Cloudy
11:53 PM 19.0 °F 8.2 °F 10.0 °F 68% - 10.0 mi WNW 9.2 mph - N/A   Overcast